Location: CCZU
(31.6840°N, 119.9550°E)
Time: 10:39:02
(UTC+08:00)

ISS - Visible Passes

Search period start: 11 December 2025 00:00
Search period end: 21 December 2025 00:00
Orbit: 416 x 420 km, 51.6° (Epoch: 10 December)

Date Brightness Start Highest point End Pass type
(mag) Time Alt. Az. Time Alt. Az. Time Alt. Az.
12 Dec -1.5 05:36:52 10° S 05:39:48 28° SE 05:42:45 10° ENE visible
13 Dec -0.6 04:50:01 10° SSE 04:52:00 15° SE 04:53:59 10° E visible
14 Dec -3.9 05:38:09 18° SW 05:40:31 71° NW 05:43:52 10° NE visible
15 Dec -2.2 04:53:43 34° ENE 04:53:43 34° ENE 04:55:51 10° NE visible
15 Dec -1.8 06:27:43 10° WNW 06:29:33 14° NNW 06:31:23 10° N visible
16 Dec -2.3 05:41:45 21° NNW 05:41:45 21° NNW 05:44:02 10° NNE visible
